RH
45 42 40 38 35 32 28 24 24 26 23 30 25 21 18 15 13 12 11 10 10 9 9 9 9 10 10 8 6 6 5 6 10 26 64 92 100 100
30 26 25 25 24 24 25 26 28 30 29 27 20 19 15 13 12 11 10 10 10 9 9 8 8 8 9 9 9 7 6 5 5 11 35 67 96 99
25 24 24 23 24 25 24 25 27 30 25 16 19 19 18 17 15 14 12 12 10 11 11 11 10 8 8 8 8 8 8 6 5 5 15 51 79 94
22 20 18 18 18 19 21 24 29 39 44 23 17 19 18 20 22 24 24 23 17 14 13 15 13 9 8 8 9 8 8 8 6 5 5 19 62 82
17 16 16 16 17 17 19 23 26 36 49 50 24 31 29 38 32 37 40 40 38 33 27 20 16 14 13 12 12 10 7 7 7 6 5 5 33 70
17 16 17 18 19 22 27 33 36 41 51 60 54 41 44 46 50 48 36 38 37 37 33 36 31 29 30 26 19 11 10 7 6 6 6 5 9 58
19 20 21 24 27 30 37 41 45 47 49 54 60 50 42 45 52 53 46 41 32 36 40 34 30 26 26 23 18 14 12 10 7 6 6 6 5 26
22 24 27 34 41 45 47 57 65 81 83 82 76 68 49 53 66 66 64 63 64 52 53 38 44 33 31 28 27 21 15 13 10 6 6 6 5 6
27 31 34 38 41 42 44 47 51 55 59 78 72 64 72 70 82 86 89 90 83 58 74 54 50 46 48 36 39 32 36 27 13 9 8 7 6 5
34 36 39 42 46 48 57 66 70 72 73 73 76 77 85 87 94 99 97 98 85 68 75 76 62 66 76 67 94 95 100 61 25 17 14 9 6 5
38 41 46 52 59 71 91 90 88 82 81 76 72 77 92 89 97 100 91 90 83 73 59 90 67 74 58 65 90 99 98 88 76 57 32 20 9 7
45 49 58 75 90 98 100 100 98 88 75 70 72 74 80 78 78 79 81 87 89 91 58 90 82 80 94 70 87 80 65 57 56 49 38 30 21 10
50 53 61 69 73 98 97 98 94 86 92 99 97 93 80 73 69 67 71 80 85 82 58 95 86 77 86 88 68 50 50 48 49 45 36 29 24 21
77 79 73 74 79 88 97 95 98 96 90 84 84 84 85 78 72 70 71 74 87 93 75 78 90 78 87 93 90 56 50 49 50 48 40 30 28 24
96 87 94 99 99 95 81 82 94 96 91 85 81 75 82 89 88 82 75 71 67 63 62 66 72 72 88 100 94 76 74 48 49 54 51 42 36 25
79 78 83 92 96 92 83 73 76 78 75 76 77 77 75 74 76 80 80 79 78 72 67 74 78 85 88 100 100 91 85 97 53 54 54 46 44 39
90 94 98 92 82 76 74 79 84 77 70 69 81 84 85 81 77 78 80 80 80 78 74 74 80 88 90 92 98 80 76 75 63 64 72 59 47 41
98 94 94 91 85 76 73 79 83 74 73 76 79 82 84 82 81 79 79 82 86 80 76 74 76 77 78 74 84 79 73 69 65 75 80 82 57 46
96 95 87 77 64 60 64 79 83 78 78 78 79 81 82 81 90 82 81 82 83 79 74 71 69 76 90 94 73 72 77 78 80 76 76 74 81 58
100 90 74 57 45 49 58 71 76 79 79 80 80 81 81 83 86 89 91 86 81 77 76 75 83 88 90 81 86 71 78 86 78 71 66 65 67 66
94 81 59 52 48 52 63 77 87 85 84 87 93 92 88 89 83 81 82 90 99 96 92 82 70 70 78 88 93 78 70 78 86 83 76 73 68 60
76 66 52 40 39 44 58 72 80 89 93 90 84 79 76 82 83 84 89 87 85 83 79 78 72 76 82 88 87 80 74 63 68 74 77 76 78 81
80 57 41 34 33 37 52 96 95 91 94 96 91 82 78 80 76 84 89 90 93 94 87 87 87 88 86 87 86 82 84 80 68 63 62 66 70 72
Wind_Speed
2 1 2 2 4 5 6 8 8 6 10 7 11 16 19 18 18 18 18 17 18 18 19 17 14 13 14 14 16 17 17 15 15 13 12 12 12 11
4 4 4 5 5 6 7 8 9 10 10 14 17 19 20 20 20 20 19 19 18 18 18 19 19 14 13 13 14 15 16 16 15 14 12 11 11 12
6 6 5 6 7 8 9 11 12 13 18 21 21 22 24 25 24 23 21 20 19 18 18 18 18 19 16 13 13 14 15 16 16 15 13 10 12 13
8 8 8 9 10 12 13 14 14 15 18 23 24 25 25 25 25 25 24 23 21 18 19 19 18 18 19 16 13 12 14 15 15 16 15 12 11 10
10 10 11 12 13 15 16 16 16 17 18 21 25 25 26 24 24 21 21 20 20 19 17 16 19 20 19 18 16 14 13 15 15 16 15 14 11 10
12 12 13 13 14 15 14 14 15 16 17 19 21 23 22 21 20 22 23 21 22 20 19 17 17 19 21 20 18 17 15 15 15 15 16 14 12 11
13 13 14 14 14 13 12 11 11 12 13 15 16 19 20 20 20 22 24 24 23 19 21 21 20 19 19 21 19 17 17 15 15 16 16 14 13 11
13 13 13 12 11 11 11 10 11 12 14 16 17 17 18 18 17 17 19 23 27 20 26 25 22 20 18 15 17 17 16 16 16 16 16 15 12 12
12 12 11 10 11 12 13 13 13 13 13 15 17 15 15 14 15 17 17 20 22 23 23 27 22 22 17 14 12 13 10 12 15 16 16 16 14 11
11 11 11 10 10 11 12 12 12 13 12 12 14 15 14 13 16 19 19 21 22 19 20 27 21 20 18 11 7 4 5 10 13 15 16 17 15 13
11 10 10 10 9 8 9 12 14 15 14 14 15 15 14 15 15 18 19 19 22 21 18 20 21 25 20 12 4 4 12 20 18 16 16 16 17 13
10 10 11 10 9 8 12 15 17 17 17 14 13 13 14 14 14 15 17 20 22 24 18 21 20 21 22 11 4 13 22 25 24 22 19 18 16 15
10 11 11 12 13 11 10 14 16 17 19 21 21 21 20 19 18 16 16 17 19 19 17 18 21 19 21 26 28 23 22 21 23 22 19 18 15 15
10 10 9 7 6 7 10 14 15 16 19 20 21 21 21 20 17 15 15 15 16 19 19 17 21 21 24 26 29 27 24 22 21 21 17 16 13 13
12 9 7 9 12 13 14 15 15 17 19 19 19 20 18 18 20 22 22 23 24 24 23 22 21 21 22 23 27 28 27 26 18 18 20 18 15 13
9 10 11 11 13 16 17 17 15 14 17 19 20 21 22 22 22 20 21 20 21 23 21 19 19 18 21 22 21 24 22 22 20 21 20 17 15 13
10 13 16 19 19 18 17 16 17 19 19 17 17 18 19 20 22 19 18 18 19 19 20 17 16 19 19 20 23 24 23 21 20 20 19 17 15 14
16 19 20 22 21 19 18 18 18 18 16 16 18 18 18 19 20 19 18 17 18 18 19 18 16 18 20 21 20 23 21 21 19 15 15 18 18 13
20 23 24 22 21 21 19 18 19 18 17 18 18 18 18 19 19 20 20 20 20 19 19 18 17 16 20 23 22 20 22 18 16 16 15 16 20 17
25 25 24 22 20 20 20 20 19 19 19 19 20 20 19 19 20 20 20 21 22 21 20 18 17 17 19 22 25 23 19 21 19 19 20 19 19 19
25 24 23 21 21 21 20 20 21 22 22 21 20 21 22 22 24 23 23 21 19 22 24 25 22 19 20 20 24 25 20 17 17 18 20 22 22 21
25 24 24 26 26 24 24 24 24 25 26 25 24 23 23 22 23 22 23 24 24 24 25 25 21 18 18 19 23 25 24 21 18 19 19 21 21 23
27 29 29 29 29 28 27 26 26 27 27 27 26 24 22 23 23 23 24 23 23 23 24 23 20 19 20 21 22 24 23 21 20 20 20 19 18 19
Wind_Direction
222 240 287 302 311 317 319 320 323 319 317 291 306 314 318 320 322 324 325 328 329 328 329 330 341 348 346 344 344 346 350 346 342 327 302 302 321 267
242 250 263 282 290 297 303 307 309 307 297 300 306 310 313 314 316 316 316 318 318 317 317 321 324 331 339 338 335 333 337 345 343 339 318 297 300 286
246 257 267 277 287 294 299 301 301 300 298 301 305 309 311 312 314 314 312 310 310 310 310 310 314 317 322 331 326 323 324 330 339 342 334 306 278 296
254 264 273 282 288 292 293 292 291 291 292 295 298 301 304 310 314 315 316 316 310 305 302 308 306 303 306 311 316 313 312 317 327 333 337 329 296 276
260 268 273 278 281 281 283 285 286 286 285 288 295 301 305 310 310 312 316 318 316 314 313 305 300 299 298 299 303 308 307 305 314 323 331 332 311 278
264 268 273 278 281 285 288 288 288 288 288 289 293 299 305 315 318 318 316 318 318 319 316 310 302 302 305 304 303 300 304 300 301 313 319 327 324 295
266 271 276 279 283 290 295 295 296 298 298 299 301 305 311 318 322 321 318 321 321 330 323 317 311 304 302 301 301 296 297 296 295 300 309 314 321 301
265 267 271 277 283 281 285 289 296 302 302 301 304 307 313 318 326 326 327 330 331 331 327 322 330 322 318 310 307 300 301 297 290 289 300 305 309 305
261 263 265 271 276 281 284 286 287 290 292 295 297 304 308 320 323 329 331 327 324 333 333 325 337 329 324 322 318 307 312 292 287 286 291 294 297 296
258 262 267 273 277 281 284 286 292 299 303 296 295 299 304 314 314 316 314 311 316 324 332 325 341 338 347 355 353 19 6 301 284 283 287 288 288 290
252 255 265 275 284 293 293 297 301 303 304 304 301 300 293 284 285 293 297 304 309 320 330 324 328 328 327 322 310 285 314 318 315 302 296 292 283 284
257 260 261 261 272 278 276 284 291 299 309 313 301 295 298 298 300 295 297 296 302 307 319 315 322 330 328 356 337 289 299 301 305 304 307 302 302 287
260 261 265 267 268 271 268 276 285 301 305 298 299 302 302 300 298 296 294 293 293 288 303 305 308 311 310 312 310 315 320 312 303 300 297 298 297 301
273 282 282 280 278 291 284 283 284 286 285 287 289 296 302 302 300 292 285 284 285 289 296 298 297 302 304 303 306 314 314 315 316 310 303 293 290 285
267 277 288 283 272 266 269 279 287 283 289 291 292 294 294 294 294 292 287 285 283 281 282 286 287 289 290 293 297 304 311 315 323 319 309 301 298 284
261 277 275 279 275 281 287 289 288 288 292 290 289 289 291 293 294 296 296 294 290 285 278 279 284 285 290 286 295 298 303 302 323 328 319 300 293 285
289 289 290 291 293 291 288 289 293 298 298 292 287 289 292 296 297 297 297 298 298 296 292 284 283 286 286 287 290 298 299 301 310 319 321 308 293 283
266 273 276 280 285 289 291 289 293 299 295 294 291 289 290 295 299 300 301 301 299 296 293 293 294 285 282 281 277 291 297 305 310 308 312 312 300 287
255 260 269 279 287 289 287 286 291 293 293 292 293 292 292 292 293 295 298 299 299 296 293 295 295 289 292 289 291 292 297 305 305 295 304 306 306 303
254 264 275 282 286 287 285 282 282 283 285 288 290 289 288 288 292 293 296 298 297 295 293 289 289 291 288 291 297 288 284 289 293 296 300 303 298 293
261 268 275 280 284 285 283 280 279 281 282 284 283 285 285 285 285 287 289 289 287 285 287 288 288 289 290 291 286 287 285 283 287 290 297 299 303 300
263 268 275 283 285 283 279 277 275 276 277 276 277 280 282 281 282 283 285 287 286 286 288 288 285 283 280 278 281 285 288 286 280 281 280 284 290 291
274 277 280 280 279 278 275 273 274 275 273 275 277 279 278 281 282 279 280 283 284 285 286 288 285 282 279 281 281 285 286 285 285 278 272 271 277 283